Location: Ouayou
(11.7000°N, 2.0000°W)
Time: 00:28:09
(UTC+00:00)

Daily predictions for brighter satellites

Satellite Brightness Start Highest point End
(mag) Time Altitude Azimuth Time Altitude Azimuth Time Altitude Azimuth
Milstar 3 3.9 03:27:06 46° NNE 03:27:06 46° NNE 03:33:42 10° E
CZ-3B R/B 3.4 03:31:13 33° NE 03:31:13 33° NE 03:33:54 10° ENE
Milstar 3 Cent rocket 3.3 03:59:47 52° NW 04:02:26 74° NNE 04:08:51 10° ESE
Cosmos 1697 Rocket 4.3 04:01:42 14° NNE 04:05:34 30° ENE 04:10:25 10° SE
Meteor 1-31 Rocket 4.0 04:10:05 40° E 04:10:08 40° E 04:13:49 10° S
CZ-4B R/B 3.7 04:16:52 42° ENE 04:17:31 47° ESE 04:21:15 10° S
ASTRO E2 2.8 04:27:47 68° ENE 04:27:47 68° ENE 04:31:25 10° ESE
PAYLOAD A 4.3 04:29:05 49° WSW 04:29:05 49° WSW 04:33:29 10° SSW
Cosmos 1656 3.5 04:28:42 55° NW 04:29:46 69° WSW 04:35:13 10° S
COSMOS 2487 4.3 04:34:10 10° SSE 04:37:16 32° E 04:40:22 10° NE
Atlas Centaur 2 2.9 04:37:19 19° NNE 04:37:38 20° NNE 04:40:20 10° ENE
Cosmos 2100 Rocket 4.3 04:31:38 10° S 04:37:49 66° E 04:43:57 10° NNE
Lacrosse 4 Rocket 2.1 04:39:24 38° SW 04:39:24 38° SW 04:42:46 10° S
SEDSat Delta rocket 4.0 04:38:26 20° SSW 04:40:51 40° SE 04:44:52 10° ENE
ATLAS CENTAUR R/B 1.9 04:42:48 32° WSW 04:44:39 49° WNW 04:49:25 10° N
SWIFT 2.5 04:44:22 48° NW 04:44:51 50° NNW 04:49:00 10° ENE
BLOCK DM-SL R/B 4.4 04:44:36 10° SSW 04:47:50 21° SSE 04:57:09 10° ESE
ASTEX 1 3.5 04:43:48 10° SSE 04:48:42 75° E 04:53:38 10° N
FALCON 9 R/B 3.0 04:45:40 25° WSW 04:49:00 78° NNW 05:06:36 10° NE
ISS -2.5 04:51:14 22° N 04:52:51 36° NE 04:55:59 10° ESE
PSLV R/B 4.0 04:49:11 10° S 04:53:10 55° WSW 04:55:11 27° NW
Cosmos 1802 Rocket 4.4 04:47:26 10° S 04:53:47 68° E 05:00:09 10° N
Cosmos 2221 2.6 04:51:55 25° NNW 04:54:10 52° W 04:58:24 10° S
PSLV R/B 3.8 04:51:38 10° N 04:55:36 88° W 04:59:39 10° SSW
Cosmos 2151 2.8 04:53:57 10° S 04:58:14 79° W 05:02:30 10° N
Cosmos 1766 Rocket 3.4 04:54:54 10° S 04:59:14 86° W 05:03:32 10° N
CZ-2C R/B 3.5 05:01:50 22° WSW 05:01:50 22° WSW 05:04:13 10° SW
Okean 3 Rocket 3.6 04:56:24 10° SSW 05:00:51 57° W 05:05:18 10° N
Cosmos 1408 3.2 04:59:37 10° S 05:03:16 59° E 05:06:54 10° NNE
Cosmos 2061 Rocket 4.2 05:01:30 10° S 05:07:49 79° E 05:14:04 10° N
Cosmos 1980 Rocket 2.5 05:04:50 10° N 05:10:28 70° ENE 05:16:04 10° SSE
Cosmos 2173 Rocket 4.0 05:05:30 10° SSW 05:11:45 62° W 05:17:56 10° N
Meteor PRIRODA 4.2 05:08:54 10° NNW 05:12:11 33° WNW 05:15:29 10° SW
Cosmos 923 Rocket 4.0 05:07:49 10° NNW 05:12:59 61° WSW 05:18:10 10° S
BREEZE-M DEB (TANK) 4.3 05:12:10 19° W 05:14:18 33° SW 05:22:12 10° SSE
ALOS 2.5 05:10:13 10° NNE 05:14:52 75° ESE 05:19:31 10° S
GPS 2-12 Rocket1 3.6 05:14:38 17° NW 05:17:46 45° NNE 05:22:04 10° E
USA 267 3.3 05:13:37 10° NE 05:20:10 87° NW 05:26:43 10° SW
GPS 2-05 Rocket1 1.9 05:18:41 12° SW 05:21:04 84° NW 05:23:42 10° NE
GENESIS II 4.2 05:18:37 10° NNW 05:22:35 87° WSW 05:26:29 10° SSE
Ariane H10 4.5 05:20:22 10° WSW 05:25:37 27° S 05:28:09 10° SE
Cosmos 1892 4.0 05:24:55 10° SW 05:27:46 20° W 05:30:37 10° NW
COBE Rocket 4.0 05:23:46 10° S 05:28:56 80° WSW 05:34:06 10° NNW
Cosmos 1864 Rocket 4.5 05:23:14 10° S 05:29:21 89° W 05:35:28 10° N
APEX 4.1 05:26:11 10° NW 05:30:06 44° WSW 05:35:03 10° S
CZ-3B R/B 3.0 05:26:34 12° WNW 05:30:35 19° NNW 05:33:45 10° NNE
Helios 1A Rocket 2.9 05:32:18 10° N 05:36:18 62° WNW 05:40:16 10° SSW
Cosmos 1125 Rocket 3.5 05:34:22 10° SSW 05:39:35 63° WNW 05:44:49 10° N
ARIANE 5 R/B 4.2 05:33:02 10° WSW 05:41:46 21° SSW 05:45:03 10° SSE
FENGYUN 3A 3.8 05:40:41 10° N 05:45:52 50° WNW 05:51:03 10° SSW
